Regional Weather Roundup
Issued by NWS Cleveland, OH

Home | Current Version | Previous Version | Graphics & Text | Print | Product List | Glossary On
Versions: 1 2 3 4 5 6 7 8 9 10 11 12 13 14 15 16 17 18 19 20 21 22 23 24 25 26 27 28 29 30 31 32 33 34 35 36 37 38 39 40 41 42 43 44 45 46 47 48 49 50
000
ASUS41 KCLE 031510
RWRCLE
OHIO REGIONAL WEATHER ROUNDUP
NATIONAL WEATHER SERVICE WILMINGTON, OH
1100 AM EDT MON AUG 03 2015

NOTE: "FAIR" INDICATES FEW OR NO CLOUDS BELOW 12,000 FEET WITH NO
SIGNIFICANT WEATHER AND/OR OBSTRUCTIONS TO VISIBILITY.

OHZ001>008-015>018-024>027-034-035-043-044-031600-
   NORTHWEST OHIO

CITY           SKY/WX    TMP DP  RH WIND       PRES   REMARKS
DEFIANCE       CLOUDY    71  64  78 VRB7      29.83R
FINDLAY        PTSUNNY   74  64  71 W16       29.82R
TOLEDO EXPRESS CLOUDY    71  63  75 W16       29.81R
TOLEDO EXEC    PTSUNNY   72  63  73 W14       29.81R
LIMA           CLOUDY    71  63  75 W9        29.84R
$$

OHZ009>014-019>023-028>033-038-089-031600-
   NORTHEAST OHIO

CITY           SKY/WX    TMP DP  RH WIND       PRES   REMARKS
CLE-HOPKINS    MOSUNNY   76  61  59 SW17G29   29.82R
CLE-LAKEFRONT  SUNNY     76  61  59 W18G24    29.79R
CUY CO. ARPT   PTSUNNY   75  63  64 W12G21    29.81R
LORAIN-ELYRIA  MOSUNNY   73  62  68 W16G22    29.82R
ASHTABULA      MOSUNNY   74  60  61 W15G24    29.81R
AKRON-CANTON   PTSUNNY   77  60  55 W13G21    29.82S
WOOSTER        SUNNY     75  60  59 W13G23    29.83R
MANSFIELD      MOSUNNY   75  61  61 SW15G22   29.84R
YOUNGSTOWN     PTSUNNY   73  59  61 W9        29.82R
$$

OHZ042-051>053-060>062-070>072-077>081-031600-
  SOUTHWEST OHIO

CITY           SKY/WX    TMP DP  RH WIND       PRES   REMARKS
CINC-COVINGTON NOT AVBL
CINC-LUNKEN    SUNNY     73  66  78 S7        29.89S
HAMILTON       MOSUNNY   73  65  75 VRB6      29.89F
DAYTON         CLOUDY    69  64  84 SW15      29.88R
WRIGHT-PAT AFB NOT AVBL
DAYTON GENERAL NOT AVBL
WILMINGTON     SUNNY     75  63  66 SW10      29.88S
$$

OHZ036-037-039>041-045>050-054>059-063>069-073>076-082>088-031600-
  CENTRAL AND SOUTHEAST OHIO

CITY           SKY/WX    TMP DP  RH WIND       PRES   REMARKS
COLUMBUS       MOSUNNY   77  62  59 SW9       29.83S
OSU AIRPORT    MOSUNNY   77  61  57 SW14G22   29.84R
BOLTON FIELD   SUNNY     75  63  64 SW14      29.85S
RICKENBACK AFB SUNNY     76  63  63 SW13      29.83S
NEWARK         MOSUNNY   78  60  53 W14       29.83R
MARION         CLOUDY    74  62  66 W12       29.84R
LANCASTER      SUNNY     77  62  59 SW9       29.84S
ZANESVILLE     PTSUNNY   75  59  57 SW9       29.84R
NEW PHILLY     PTSUNNY   73  61  65 W6        29.83R
$$


USA.gov is the U.S. government's official web portal to all federal, state and local government web resources and services.